Year,Month,Day,Hour,Minute,Value (Times are PST for temperature in C)
2016,02,09,00,00,3.80
2016,02,09,00,01,3.80
2016,02,09,00,02,3.80
2016,02,09,00,03,3.80
2016,02,09,00,04,3.80
2016,02,09,00,05,3.70
2016,02,09,00,06,3.70
2016,02,09,00,07,3.70
2016,02,09,00,08,3.70
2016,02,09,00,09,3.70
2016,02,09,00,10,3.70
2016,02,09,00,11,3.70
2016,02,09,00,12,3.70
2016,02,09,00,13,3.70
2016,02,09,00,14,3.70
2016,02,09,00,15,3.70
2016,02,09,00,16,3.70
2016,02,09,00,17,3.70
2016,02,09,00,18,3.70
2016,02,09,00,19,3.70
2016,02,09,00,20,3.70
2016,02,09,00,21,3.70
2016,02,09,00,22,3.70
2016,02,09,00,23,3.70
2016,02,09,00,24,3.70
2016,02,09,00,25,3.70
2016,02,09,00,26,3.70
2016,02,09,00,27,3.70
2016,02,09,00,28,3.70
2016,02,09,00,29,3.70
2016,02,09,00,30,3.70
2016,02,09,00,31,3.70
2016,02,09,00,32,3.70
2016,02,09,00,33,3.70
2016,02,09,00,34,3.60
2016,02,09,00,35,3.60
2016,02,09,00,36,3.60
2016,02,09,00,37,3.60
2016,02,09,00,38,3.60
2016,02,09,00,39,3.60
2016,02,09,00,40,3.60
2016,02,09,00,41,3.50
2016,02,09,00,42,3.50
2016,02,09,00,43,3.50
2016,02,09,00,44,3.50
2016,02,09,00,45,3.50
2016,02,09,00,46,3.50
2016,02,09,00,47,3.50
2016,02,09,00,48,3.50
2016,02,09,00,49,3.50
2016,02,09,00,50,3.50
2016,02,09,00,51,3.50
2016,02,09,00,52,3.40
2016,02,09,00,53,3.40
2016,02,09,00,54,3.40
2016,02,09,00,55,3.40
2016,02,09,00,56,3.40
2016,02,09,00,57,3.40
2016,02,09,00,58,3.40
2016,02,09,00,59,3.40
2016,02,09,01,00,3.40
2016,02,09,01,01,3.50
2016,02,09,01,02,3.50
2016,02,09,01,03,3.50
2016,02,09,01,04,3.50
2016,02,09,01,05,3.50
2016,02,09,01,06,3.50
2016,02,09,01,07,3.50
2016,02,09,01,08,3.50
2016,02,09,01,09,3.50
2016,02,09,01,10,3.50
2016,02,09,01,11,3.60
2016,02,09,01,12,3.60
2016,02,09,01,13,3.60
2016,02,09,01,14,3.60
2016,02,09,01,15,3.60
2016,02,09,01,16,3.60
2016,02,09,01,17,3.60
2016,02,09,01,18,3.50
2016,02,09,01,19,3.50
2016,02,09,01,20,3.50
2016,02,09,01,21,3.50
2016,02,09,01,22,3.50
2016,02,09,01,23,3.50
2016,02,09,01,24,3.50
2016,02,09,01,25,3.50
2016,02,09,01,26,3.50
2016,02,09,01,27,3.50
2016,02,09,01,28,3.50
2016,02,09,01,29,3.50
2016,02,09,01,30,3.50
2016,02,09,01,31,3.60
2016,02,09,01,32,3.60
2016,02,09,01,33,3.60
2016,02,09,01,34,3.60
2016,02,09,01,35,3.60
2016,02,09,01,36,3.60
2016,02,09,01,37,3.60
2016,02,09,01,38,3.60
2016,02,09,01,39,3.60
2016,02,09,01,40,3.60
2016,02,09,01,41,3.60
2016,02,09,01,42,3.60
2016,02,09,01,43,3.60
2016,02,09,01,44,3.60
2016,02,09,01,45,3.60
2016,02,09,01,46,3.60
2016,02,09,01,47,3.60
2016,02,09,01,48,3.50
2016,02,09,01,49,3.50
2016,02,09,01,50,3.50
2016,02,09,01,51,3.60
2016,02,09,01,52,3.60
2016,02,09,01,53,3.60
2016,02,09,01,54,3.60
2016,02,09,01,55,3.60
2016,02,09,01,56,3.50
2016,02,09,01,57,3.50
2016,02,09,01,58,3.50
2016,02,09,01,59,3.60
2016,02,09,02,00,3.60
2016,02,09,02,01,3.60
2016,02,09,02,02,3.50
2016,02,09,02,03,3.50
2016,02,09,02,04,3.40
2016,02,09,02,05,3.40
2016,02,09,02,06,3.40
2016,02,09,02,07,3.40
2016,02,09,02,08,3.40
2016,02,09,02,09,3.40
2016,02,09,02,10,3.40
2016,02,09,02,11,3.40
2016,02,09,02,12,3.40
2016,02,09,02,13,3.30
2016,02,09,02,14,3.30
2016,02,09,02,15,3.30
2016,02,09,02,16,3.30
2016,02,09,02,17,3.30
2016,02,09,02,18,3.30
2016,02,09,02,19,3.30
2016,02,09,02,20,3.40
2016,02,09,02,21,3.40
2016,02,09,02,22,3.40
2016,02,09,02,23,3.40
2016,02,09,02,24,3.40
2016,02,09,02,25,3.40
2016,02,09,02,26,3.40
2016,02,09,02,27,3.40
2016,02,09,02,28,3.40
2016,02,09,02,29,3.40
2016,02,09,02,30,3.40
2016,02,09,02,31,3.40
2016,02,09,02,32,3.40
2016,02,09,02,33,3.30
2016,02,09,02,34,3.30
2016,02,09,02,35,3.30
2016,02,09,02,36,3.30
2016,02,09,02,37,3.30
2016,02,09,02,38,3.30
2016,02,09,02,39,3.30
2016,02,09,02,40,3.20
2016,02,09,02,41,3.20
2016,02,09,02,42,3.20
2016,02,09,02,43,3.20
2016,02,09,02,44,3.20
2016,02,09,02,45,3.20
2016,02,09,02,46,3.20
2016,02,09,02,47,3.20
2016,02,09,02,48,3.20
2016,02,09,02,49,3.10
2016,02,09,02,50,3.10
2016,02,09,02,51,3.10
2016,02,09,02,52,3.10
2016,02,09,02,53,3.10
2016,02,09,02,54,3.10
2016,02,09,02,55,3.00
2016,02,09,02,56,3.00
2016,02,09,02,57,3.00
2016,02,09,02,58,3.00
2016,02,09,02,59,3.00
2016,02,09,03,00,3.00
2016,02,09,03,01,3.00
2016,02,09,03,02,3.00
2016,02,09,03,03,3.00
2016,02,09,03,04,3.00
2016,02,09,03,05,3.00
2016,02,09,03,06,3.00
2016,02,09,03,07,3.00
2016,02,09,03,08,3.00
2016,02,09,03,09,3.00
2016,02,09,03,10,3.00
2016,02,09,03,11,3.10
2016,02,09,03,12,3.10
2016,02,09,03,13,3.00
2016,02,09,03,14,3.00
2016,02,09,03,15,3.00
2016,02,09,03,16,2.90
2016,02,09,03,17,2.90
2016,02,09,03,18,2.90
2016,02,09,03,19,2.80
2016,02,09,03,20,2.80
2016,02,09,03,21,2.80
2016,02,09,03,22,2.80
2016,02,09,03,23,2.80
2016,02,09,03,24,2.80
2016,02,09,03,25,2.80
2016,02,09,03,26,2.80
2016,02,09,03,27,2.80
2016,02,09,03,28,2.80
2016,02,09,03,29,2.80
2016,02,09,03,30,2.80
2016,02,09,03,31,2.70
2016,02,09,03,32,2.70
2016,02,09,03,33,2.70
2016,02,09,03,34,2.70
2016,02,09,03,35,2.70
2016,02,09,03,36,2.70
2016,02,09,03,37,2.70
2016,02,09,03,38,2.70
2016,02,09,03,39,2.70
2016,02,09,03,40,2.70
2016,02,09,03,41,2.70
2016,02,09,03,42,2.70
2016,02,09,03,43,2.70
2016,02,09,03,44,2.70
2016,02,09,03,45,2.70
2016,02,09,03,46,2.70
2016,02,09,03,47,2.60
2016,02,09,03,48,2.60
2016,02,09,03,49,2.60
2016,02,09,03,50,2.60
2016,02,09,03,51,2.60
2016,02,09,03,52,2.60
2016,02,09,03,53,2.60
2016,02,09,03,54,2.60
2016,02,09,03,55,2.60
2016,02,09,03,56,2.60
2016,02,09,03,57,2.50
2016,02,09,03,58,2.50
2016,02,09,03,59,2.50
2016,02,09,04,00,2.50
2016,02,09,04,01,2.50
2016,02,09,04,02,2.50
2016,02,09,04,03,2.50
2016,02,09,04,04,2.50
2016,02,09,04,05,2.50
2016,02,09,04,06,2.40
2016,02,09,04,07,2.40
2016,02,09,04,08,2.40
2016,02,09,04,09,2.40
2016,02,09,04,10,2.40
2016,02,09,04,11,2.40
2016,02,09,04,12,2.40
2016,02,09,04,13,2.40
2016,02,09,04,14,2.40
2016,02,09,04,15,2.30
2016,02,09,04,16,2.30
2016,02,09,04,17,2.30
2016,02,09,04,18,2.30
2016,02,09,04,19,2.30
2016,02,09,04,20,2.30
2016,02,09,04,21,2.30
2016,02,09,04,22,2.30
2016,02,09,04,23,2.20
2016,02,09,04,24,2.20
2016,02,09,04,25,2.20
2016,02,09,04,26,2.20
2016,02,09,04,27,2.20
2016,02,09,04,28,2.20
2016,02,09,04,29,2.20
2016,02,09,04,30,2.20
2016,02,09,04,31,2.20
2016,02,09,04,32,2.20
2016,02,09,04,33,2.20
2016,02,09,04,34,2.10
2016,02,09,04,35,2.10
2016,02,09,04,36,2.10
2016,02,09,04,37,2.10
2016,02,09,04,38,2.10
2016,02,09,04,39,2.10
2016,02,09,04,40,2.10
2016,02,09,04,41,2.10
2016,02,09,04,42,2.10
2016,02,09,04,43,2.10
2016,02,09,04,44,2.10
2016,02,09,04,45,2.10
2016,02,09,04,46,2.10
2016,02,09,04,47,2.10
2016,02,09,04,48,2.10
2016,02,09,04,49,2.10
2016,02,09,04,50,2.10
2016,02,09,04,51,2.10
2016,02,09,04,52,2.00
2016,02,09,04,53,2.00
2016,02,09,04,54,2.00
2016,02,09,04,55,2.00
2016,02,09,04,56,2.00
2016,02,09,04,57,2.00
2016,02,09,04,58,1.90
2016,02,09,04,59,1.90
2016,02,09,05,00,1.90
2016,02,09,05,01,1.90
2016,02,09,05,02,1.90
2016,02,09,05,03,1.90
2016,02,09,05,04,1.90
2016,02,09,05,05,1.90
2016,02,09,05,06,1.80
2016,02,09,05,07,1.80
2016,02,09,05,08,1.80
2016,02,09,05,09,1.80
2016,02,09,05,10,1.80
2016,02,09,05,11,1.80
2016,02,09,05,12,1.80
2016,02,09,05,13,1.80
2016,02,09,05,14,1.80
2016,02,09,05,15,1.80
2016,02,09,05,16,1.80
2016,02,09,05,17,1.80
2016,02,09,05,18,1.80
2016,02,09,05,19,1.80
2016,02,09,05,20,1.80
2016,02,09,05,21,1.80
2016,02,09,05,22,1.70
2016,02,09,05,23,1.70
2016,02,09,05,24,1.70
2016,02,09,05,25,1.70
2016,02,09,05,26,1.70
2016,02,09,05,27,1.70
2016,02,09,05,28,1.70
2016,02,09,05,29,1.70
2016,02,09,05,30,1.70
2016,02,09,05,31,1.70
2016,02,09,05,32,1.70
2016,02,09,05,33,1.70
2016,02,09,05,34,1.70
2016,02,09,05,35,1.70
2016,02,09,05,36,1.70
2016,02,09,05,37,1.70
2016,02,09,05,38,1.70
2016,02,09,05,39,1.70
2016,02,09,05,40,1.60
2016,02,09,05,41,1.60
2016,02,09,05,42,1.60
2016,02,09,05,43,1.60
2016,02,09,05,44,1.60
2016,02,09,05,45,1.60
2016,02,09,05,46,1.60
2016,02,09,05,47,1.60
2016,02,09,05,48,1.60
2016,02,09,05,49,1.60
2016,02,09,05,50,1.60
2016,02,09,05,51,1.50
2016,02,09,05,52,1.60
2016,02,09,05,53,1.50
2016,02,09,05,54,1.50
2016,02,09,05,55,1.50
2016,02,09,05,56,1.50
2016,02,09,05,57,1.50
2016,02,09,05,58,1.50
2016,02,09,05,59,1.50
2016,02,09,06,00,1.50
2016,02,09,06,01,1.50
2016,02,09,06,02,1.50
2016,02,09,06,03,1.50
2016,02,09,06,04,1.50
2016,02,09,06,05,1.50
2016,02,09,06,06,1.60
2016,02,09,06,07,1.60
2016,02,09,06,08,1.60
2016,02,09,06,09,1.60
2016,02,09,06,10,1.60
2016,02,09,06,11,1.60
2016,02,09,06,12,1.60
2016,02,09,06,13,1.60
2016,02,09,06,14,1.50
2016,02,09,06,15,1.50
2016,02,09,06,16,1.50
2016,02,09,06,17,1.40
2016,02,09,06,18,1.40
2016,02,09,06,19,1.40
2016,02,09,06,20,1.40
2016,02,09,06,21,1.40
2016,02,09,06,22,1.40
2016,02,09,06,23,1.40
2016,02,09,06,24,1.40
2016,02,09,06,25,1.30
2016,02,09,06,26,1.30
2016,02,09,06,27,1.30
2016,02,09,06,28,1.30
2016,02,09,06,29,1.30
2016,02,09,06,30,1.30
2016,02,09,06,31,1.30
2016,02,09,06,32,1.30
2016,02,09,06,33,1.30
2016,02,09,06,34,1.30
2016,02,09,06,35,1.30
2016,02,09,06,36,1.30
2016,02,09,06,37,1.30
2016,02,09,06,38,1.30
2016,02,09,06,39,1.30
2016,02,09,06,40,1.30
2016,02,09,06,41,1.30
2016,02,09,06,42,1.30
2016,02,09,06,43,1.30
2016,02,09,06,44,1.30
2016,02,09,06,45,1.30
2016,02,09,06,46,1.30
2016,02,09,06,47,1.30
2016,02,09,06,48,1.30
2016,02,09,06,49,1.30
2016,02,09,06,50,1.30
2016,02,09,06,51,1.30
2016,02,09,06,52,1.30
2016,02,09,06,53,1.30
2016,02,09,06,54,1.30
2016,02,09,06,55,1.30
2016,02,09,06,56,1.30
2016,02,09,06,57,1.30
2016,02,09,06,58,1.30
2016,02,09,06,59,1.30
2016,02,09,07,00,1.30
2016,02,09,07,01,1.20
2016,02,09,07,02,1.20
2016,02,09,07,03,1.20
2016,02,09,07,04,1.20
2016,02,09,07,05,1.20
2016,02,09,07,06,1.20
2016,02,09,07,07,1.20
2016,02,09,07,08,1.20
2016,02,09,07,09,1.20
2016,02,09,07,10,1.20
2016,02,09,07,11,1.30
2016,02,09,07,12,1.30
2016,02,09,07,13,1.30
2016,02,09,07,14,1.30
2016,02,09,07,15,1.30
2016,02,09,07,16,1.30
2016,02,09,07,17,1.30
2016,02,09,07,18,1.30
2016,02,09,07,19,1.30
2016,02,09,07,20,1.30
2016,02,09,07,21,1.30
2016,02,09,07,22,1.30
2016,02,09,07,23,1.30
2016,02,09,07,24,1.30
2016,02,09,07,25,1.30
2016,02,09,07,26,1.30
2016,02,09,07,27,1.30
2016,02,09,07,28,1.30
2016,02,09,07,29,1.30
2016,02,09,07,30,1.30
2016,02,09,07,31,1.30
2016,02,09,07,32,1.30
2016,02,09,07,33,1.30
2016,02,09,07,34,1.30
2016,02,09,07,35,1.30
2016,02,09,07,36,1.30
2016,02,09,07,37,1.30
2016,02,09,07,38,1.30
2016,02,09,07,39,1.30
2016,02,09,07,40,1.30
2016,02,09,07,41,1.30
2016,02,09,07,42,1.20
2016,02,09,07,43,1.20
2016,02,09,07,44,1.20
2016,02,09,07,45,1.20
2016,02,09,07,46,1.20
2016,02,09,07,47,1.20
2016,02,09,07,48,1.20
2016,02,09,07,49,1.20
2016,02,09,07,50,1.20
2016,02,09,07,51,1.20
2016,02,09,07,52,1.20
2016,02,09,07,53,1.10
2016,02,09,07,54,1.10
2016,02,09,07,55,1.10
2016,02,09,07,56,1.10
2016,02,09,07,57,1.10
2016,02,09,07,58,1.20
2016,02,09,07,59,1.20
2016,02,09,08,00,1.20
2016,02,09,08,01,1.20
2016,02,09,08,02,1.20
2016,02,09,08,03,1.30
2016,02,09,08,04,1.30
2016,02,09,08,05,1.30
2016,02,09,08,06,1.30
2016,02,09,08,07,1.30
2016,02,09,08,08,1.30
2016,02,09,08,09,1.30
2016,02,09,08,10,1.30
2016,02,09,08,11,1.30
2016,02,09,08,12,1.30
2016,02,09,08,13,1.30
2016,02,09,08,14,1.30
2016,02,09,08,15,1.30
2016,02,09,08,16,1.30
2016,02,09,08,17,1.40
2016,02,09,08,18,1.40
2016,02,09,08,19,1.50
2016,02,09,08,20,1.50
2016,02,09,08,21,1.50
2016,02,09,08,22,1.60
2016,02,09,08,23,1.60
2016,02,09,08,24,1.60
2016,02,09,08,25,1.60
2016,02,09,08,26,1.60
2016,02,09,08,27,1.60
2016,02,09,08,28,1.60
2016,02,09,08,29,1.60
2016,02,09,08,30,1.70
2016,02,09,08,31,1.70
2016,02,09,08,32,1.70
2016,02,09,08,33,1.70
2016,02,09,08,34,1.70
2016,02,09,08,35,1.70
2016,02,09,08,36,1.70
2016,02,09,08,37,1.70
2016,02,09,08,38,1.70
2016,02,09,08,39,1.70
2016,02,09,08,40,1.80
2016,02,09,08,41,1.80
2016,02,09,08,42,1.80
2016,02,09,08,43,1.80
2016,02,09,08,44,1.80
2016,02,09,08,45,1.80
2016,02,09,08,46,1.90
2016,02,09,08,47,1.90
2016,02,09,08,48,1.90
2016,02,09,08,49,1.90
2016,02,09,08,50,1.90
2016,02,09,08,51,2.00
2016,02,09,08,52,2.00
2016,02,09,08,53,2.00
2016,02,09,08,54,2.10
2016,02,09,08,55,2.10
2016,02,09,08,56,2.10
2016,02,09,08,57,2.20
2016,02,09,08,58,2.20
2016,02,09,08,59,2.20
2016,02,09,09,00,2.30
2016,02,09,09,01,2.30
2016,02,09,09,02,2.30
2016,02,09,09,03,2.30
2016,02,09,09,04,2.40
2016,02,09,09,05,2.40
2016,02,09,09,06,2.50
2016,02,09,09,07,2.50
2016,02,09,09,08,2.60
2016,02,09,09,09,2.70
2016,02,09,09,10,2.80
2016,02,09,09,11,2.80
2016,02,09,09,12,2.90
2016,02,09,09,13,3.00
2016,02,09,09,14,3.10
2016,02,09,09,15,3.10
2016,02,09,09,16,3.20
2016,02,09,09,17,3.30
2016,02,09,09,18,3.40
2016,02,09,09,19,3.50
2016,02,09,09,20,3.60
2016,02,09,09,21,3.70
2016,02,09,09,22,3.80
2016,02,09,09,23,4.00
2016,02,09,09,24,4.10
2016,02,09,09,25,4.20
2016,02,09,09,26,4.30
2016,02,09,09,27,4.40
2016,02,09,09,28,4.50
2016,02,09,09,29,4.60
2016,02,09,09,30,4.60
2016,02,09,09,31,4.70
2016,02,09,09,32,4.80
2016,02,09,09,33,4.80
2016,02,09,09,34,4.80
2016,02,09,09,35,4.80
2016,02,09,09,36,4.90
2016,02,09,09,37,4.90
2016,02,09,09,38,4.90
2016,02,09,09,39,4.90
2016,02,09,09,40,5.00
2016,02,09,09,41,5.00
2016,02,09,09,42,5.10
2016,02,09,09,43,5.20
2016,02,09,09,44,5.20
2016,02,09,09,45,5.30
2016,02,09,09,46,5.30
2016,02,09,09,47,5.40
2016,02,09,09,48,5.50
2016,02,09,09,49,5.60
2016,02,09,09,50,5.70
2016,02,09,09,51,5.70
2016,02,09,09,52,5.80
2016,02,09,09,53,5.90
2016,02,09,09,54,6.00
2016,02,09,09,55,6.10
2016,02,09,09,56,6.20
2016,02,09,09,57,6.30
2016,02,09,09,58,6.40
2016,02,09,09,59,6.50
2016,02,09,10,00,6.50
2016,02,09,10,01,6.60
2016,02,09,10,02,6.60
2016,02,09,10,03,6.70
2016,02,09,10,04,6.70
2016,02,09,10,05,6.80
2016,02,09,10,06,6.90
2016,02,09,10,07,7.00
2016,02,09,10,08,7.10
2016,02,09,10,09,7.20
2016,02,09,10,10,7.20
2016,02,09,10,11,7.30
2016,02,09,10,12,7.40
2016,02,09,10,13,7.50
2016,02,09,10,14,7.50
2016,02,09,10,15,7.60
2016,02,09,10,16,7.70
2016,02,09,10,17,7.70
2016,02,09,10,18,7.90
2016,02,09,10,19,7.90
2016,02,09,10,20,7.90
2016,02,09,10,21,7.90
2016,02,09,10,22,7.90
2016,02,09,10,23,7.90
2016,02,09,10,24,7.90
2016,02,09,10,25,7.90
2016,02,09,10,26,7.90
2016,02,09,10,27,7.90
2016,02,09,10,28,7.90
2016,02,09,10,29,7.90
2016,02,09,10,30,7.90
2016,02,09,10,31,8.00
2016,02,09,10,32,8.10
2016,02,09,10,33,8.10
2016,02,09,10,34,8.20
2016,02,09,10,35,8.20
2016,02,09,10,36,8.30
2016,02,09,10,37,8.40
2016,02,09,10,38,8.40
2016,02,09,10,39,8.50
2016,02,09,10,40,8.60
2016,02,09,10,41,8.70
2016,02,09,10,42,8.80
2016,02,09,10,43,8.90
2016,02,09,10,44,9.00
2016,02,09,10,45,9.10
2016,02,09,10,46,9.20
2016,02,09,10,47,9.30
2016,02,09,10,48,9.40
2016,02,09,10,49,9.50
2016,02,09,10,50,9.60
2016,02,09,10,51,9.70
2016,02,09,10,52,9.80
2016,02,09,10,53,9.90
2016,02,09,10,54,9.90
2016,02,09,10,55,10.00
2016,02,09,10,56,10.10
2016,02,09,10,57,10.20
2016,02,09,10,58,10.30
2016,02,09,10,59,10.40
2016,02,09,11,00,10.40
2016,02,09,11,01,10.50
2016,02,09,11,02,10.60
2016,02,09,11,03,10.60
2016,02,09,11,04,10.60
2016,02,09,11,05,10.60
2016,02,09,11,06,10.70
2016,02,09,11,07,10.70
2016,02,09,11,08,10.60
2016,02,09,11,09,10.60
2016,02,09,11,10,10.60
2016,02,09,11,11,10.60
2016,02,09,11,12,10.70
2016,02,09,11,13,10.70
2016,02,09,11,14,10.80
2016,02,09,11,15,10.80
2016,02,09,11,16,10.80
2016,02,09,11,17,10.90
2016,02,09,11,18,11.00
2016,02,09,11,19,11.10
2016,02,09,11,20,11.10
2016,02,09,11,21,11.20
2016,02,09,11,22,11.20
2016,02,09,11,23,11.30
2016,02,09,11,24,11.40
2016,02,09,11,25,11.50
2016,02,09,11,26,11.60
2016,02,09,11,27,11.60
2016,02,09,11,28,11.70
2016,02,09,11,29,11.80
2016,02,09,11,30,11.90
2016,02,09,11,31,11.90
2016,02,09,11,32,12.00
2016,02,09,11,33,12.10
2016,02,09,11,34,12.20
2016,02,09,11,35,12.20
2016,02,09,11,36,12.30
2016,02,09,11,37,12.40
2016,02,09,11,38,12.40
2016,02,09,11,39,12.40
2016,02,09,11,40,12.50
2016,02,09,11,41,12.50
2016,02,09,11,42,12.60
2016,02,09,11,43,12.60
2016,02,09,11,44,12.60
2016,02,09,11,45,12.60
2016,02,09,11,46,12.60
2016,02,09,11,47,12.70
2016,02,09,11,48,12.70
2016,02,09,11,49,12.80
2016,02,09,11,50,12.80
2016,02,09,11,51,12.90
2016,02,09,11,52,13.00
2016,02,09,11,53,13.00
2016,02,09,11,54,13.10
2016,02,09,11,55,13.10
2016,02,09,11,56,13.10
2016,02,09,11,57,13.20
2016,02,09,11,58,13.30
2016,02,09,11,59,13.30
2016,02,09,12,00,13.30
2016,02,09,12,01,13.40
2016,02,09,12,02,13.40
2016,02,09,12,03,13.50
2016,02,09,12,04,13.50
2016,02,09,12,05,13.60
2016,02,09,12,06,13.60
2016,02,09,12,07,13.60
2016,02,09,12,08,13.60
2016,02,09,12,09,13.60
2016,02,09,12,10,13.60
2016,02,09,12,11,13.60
2016,02,09,12,12,13.60
2016,02,09,12,13,13.60
2016,02,09,12,14,13.60
2016,02,09,12,15,13.60
2016,02,09,12,16,13.60
2016,02,09,12,17,13.60
2016,02,09,12,18,13.60
2016,02,09,12,19,13.70
2016,02,09,12,20,13.70
2016,02,09,12,21,13.80
2016,02,09,12,22,13.80
2016,02,09,12,23,13.80
2016,02,09,12,24,13.80
2016,02,09,12,25,13.80
2016,02,09,12,26,13.80
2016,02,09,12,27,13.80
2016,02,09,12,28,13.80
2016,02,09,12,29,13.80
2016,02,09,12,30,13.80
2016,02,09,12,31,13.90
2016,02,09,12,32,13.90
2016,02,09,12,33,13.90
2016,02,09,12,34,14.00
2016,02,09,12,35,14.00
2016,02,09,12,36,14.00
2016,02,09,12,37,14.10
2016,02,09,12,38,14.10
2016,02,09,12,39,14.10
2016,02,09,12,40,14.20
2016,02,09,12,41,14.20
2016,02,09,12,42,14.30
2016,02,09,12,43,14.30
2016,02,09,12,44,14.40
2016,02,09,12,45,14.40
2016,02,09,12,46,14.40
2016,02,09,12,47,14.30
2016,02,09,12,48,14.30
2016,02,09,12,49,14.30
2016,02,09,12,50,14.30
2016,02,09,12,51,14.40
2016,02,09,12,52,14.40
2016,02,09,12,53,14.40
2016,02,09,12,54,14.40
2016,02,09,12,55,14.40
2016,02,09,12,56,14.40
2016,02,09,12,57,14.50
2016,02,09,12,58,14.50
2016,02,09,12,59,14.50
2016,02,09,13,00,14.60
2016,02,09,13,01,14.60
2016,02,09,13,02,14.60
2016,02,09,13,03,14.60
2016,02,09,13,04,14.60
2016,02,09,13,05,14.60
2016,02,09,13,06,14.60
2016,02,09,13,07,14.60
2016,02,09,13,08,14.60
2016,02,09,13,09,14.70
2016,02,09,13,10,14.70
2016,02,09,13,11,14.80
2016,02,09,13,12,14.80
2016,02,09,13,13,14.90
2016,02,09,13,14,15.00
2016,02,09,13,15,15.00
2016,02,09,13,16,15.00
2016,02,09,13,17,15.00
2016,02,09,13,18,15.00
2016,02,09,13,19,15.00
2016,02,09,13,20,14.90
2016,02,09,13,21,14.80
2016,02,09,13,22,14.80
2016,02,09,13,23,14.80
2016,02,09,13,24,14.80
2016,02,09,13,25,14.80
2016,02,09,13,26,14.80
2016,02,09,13,27,14.80
2016,02,09,13,28,14.90
2016,02,09,13,29,14.90
2016,02,09,13,30,14.80
2016,02,09,13,31,14.80
2016,02,09,13,32,14.70
2016,02,09,13,33,14.70
2016,02,09,13,34,14.70
2016,02,09,13,35,14.70
2016,02,09,13,36,14.70
2016,02,09,13,37,14.80
2016,02,09,13,38,14.80
2016,02,09,13,39,14.80
2016,02,09,13,40,14.80
2016,02,09,13,41,14.80
2016,02,09,13,42,14.80
2016,02,09,13,43,14.80
2016,02,09,13,44,14.80
2016,02,09,13,45,14.70
2016,02,09,13,46,14.70
2016,02,09,13,47,14.70
2016,02,09,13,48,14.70
2016,02,09,13,49,14.70
2016,02,09,13,50,14.70
2016,02,09,13,51,14.70
2016,02,09,13,52,14.70
2016,02,09,13,53,14.70
2016,02,09,13,54,14.80
2016,02,09,13,55,14.80
2016,02,09,13,56,14.80
2016,02,09,13,57,14.90
2016,02,09,13,58,15.00
2016,02,09,13,59,15.00
2016,02,09,14,00,15.00
2016,02,09,14,01,15.00
2016,02,09,14,02,15.00
2016,02,09,14,03,15.00
2016,02,09,14,04,15.00
2016,02,09,14,05,15.00
2016,02,09,14,06,15.00
2016,02,09,14,07,15.00
2016,02,09,14,08,15.00
2016,02,09,14,09,15.00
2016,02,09,14,10,15.00
2016,02,09,14,11,15.00
2016,02,09,14,12,15.00
2016,02,09,14,13,15.00
2016,02,09,14,14,15.00
2016,02,09,14,15,15.00
2016,02,09,14,16,15.00
2016,02,09,14,17,15.00
2016,02,09,14,18,15.00
2016,02,09,14,19,15.00
2016,02,09,14,20,15.00
2016,02,09,14,21,15.00
2016,02,09,14,22,15.00
2016,02,09,14,23,15.00
2016,02,09,14,24,15.00
2016,02,09,14,25,15.00
2016,02,09,14,26,15.00
2016,02,09,14,27,15.00
2016,02,09,14,28,15.00
2016,02,09,14,29,15.00
2016,02,09,14,30,15.00
2016,02,09,14,31,15.00
2016,02,09,14,32,15.00
2016,02,09,14,33,15.00
2016,02,09,14,34,15.00
2016,02,09,14,35,15.00
2016,02,09,14,36,15.00
2016,02,09,14,37,15.00
2016,02,09,14,38,15.00
2016,02,09,14,39,15.00
2016,02,09,14,40,15.00
2016,02,09,14,41,15.00
2016,02,09,14,42,15.00
2016,02,09,14,43,15.10
2016,02,09,14,44,15.10
2016,02,09,14,45,15.10
2016,02,09,14,46,15.00
2016,02,09,14,47,15.00
2016,02,09,14,48,15.00
2016,02,09,14,49,15.00
2016,02,09,14,50,15.00
2016,02,09,14,51,15.00
2016,02,09,14,52,15.00
2016,02,09,14,53,15.00
2016,02,09,14,54,15.00
2016,02,09,14,55,15.00
2016,02,09,14,56,15.00
2016,02,09,14,57,15.00
2016,02,09,14,58,15.00
2016,02,09,14,59,15.00
2016,02,09,15,00,14.90
2016,02,09,15,01,14.90
2016,02,09,15,02,14.80
2016,02,09,15,03,14.80
2016,02,09,15,04,14.80
2016,02,09,15,05,14.80
2016,02,09,15,06,14.80
2016,02,09,15,07,14.80
2016,02,09,15,08,14.80
2016,02,09,15,09,14.80
2016,02,09,15,10,14.80
2016,02,09,15,11,14.80
2016,02,09,15,12,14.90
2016,02,09,15,13,14.90
2016,02,09,15,14,14.90
2016,02,09,15,15,14.90
2016,02,09,15,16,14.90
2016,02,09,15,17,14.90
2016,02,09,15,18,14.80
2016,02,09,15,19,14.80
2016,02,09,15,20,14.80
2016,02,09,15,21,14.70
2016,02,09,15,22,14.70
2016,02,09,15,23,14.70
2016,02,09,15,24,14.60
